This is the latest recevied weather packets stored in our database for station/object KA3RQR. If no packets are shown the sender has not sent any weather packets the latest 10 day(s).
| Time | Temp. | Humidity | Pressure | Rain* | Wind** | Luminosity | Snow |
|---|---|---|---|---|---|---|---|
| 1777737993 | 11.67° C | 55% | 1014.6 hPa | 0 mm | - | 169 W/m² | - |
| 1777737692 | 12.22° C | 58% | 1014.7 hPa | 0 mm | - | 171 W/m² | - |
| 1777737390 | 12.22° C | 58% | 1014.6 hPa | 0 mm | - | 179 W/m² | - |
| 1777737086 | 11.67° C | 60% | 1014.7 hPa | 0 mm | - | 175 W/m² | - |
| 1777736782 | 11.11° C | 61% | 1014.8 hPa | 0 mm | - | 170 W/m² | - |
| 1777736154 | 11.67° C | 60% | 1014.8 hPa | 0 mm | - | 170 W/m² | - |
| 1777735851 | 11.67° C | 60% | 1014.9 hPa | 0 mm | - | 176 W/m² | - |
| 1777735549 | 11.67° C | 61% | 1015 hPa | 0 mm | - | 181 W/m² | - |
| 1777735246 | 11.11° C | 59% | 1014.7 hPa | 0 mm | - | 186 W/m² | - |
| 1777734943 | 10.56° C | 59% | 1014.8 hPa | 0 mm | - | 165 W/m² | - |
| 1777734640 | 10.56° C | 59% | 1014.7 hPa | 0 mm | - | 140 W/m² | - |
| 1777734338 | 10.56° C | 60% | 1015 hPa | 0 mm | - | 143 W/m² | - |
| 1777734033 | 10.56° C | 60% | 1015.1 hPa | 0 mm | - | 147 W/m² | - |
| 1777733730 | 10.56° C | 62% | 1015.1 hPa | 0 mm | - | 149 W/m² | - |
| 1777733427 | 10.56° C | 62% | 1014.9 hPa | 0 mm | - | 146 W/m² | - |
| 1777733123 | 10.56° C | 62% | 1014.8 hPa | 0 mm | - | 144 W/m² | - |
| 1777732820 | 10.56° C | 63% | 1014.8 hPa | 0 mm | - | 147 W/m² | - |
| 1777732516 | 10° C | 63% | 1015 hPa | 0 mm | - | 147 W/m² | - |
| 1777732215 | 10.56° C | 63% | 1014.9 hPa | 0 mm | - | 148 W/m² | - |
| 1777731911 | 10.56° C | 64% | 1014.9 hPa | 0 mm | - | 152 W/m² | - |
| 1777731608 | 10.56° C | 63% | 1014.6 hPa | 0 mm | - | 150 W/m² | - |
| 1777731305 | 10.56° C | 64% | 1014.4 hPa | 0 mm | - | 150 W/m² | - |
| 1777731003 | 10° C | 64% | 1014.6 hPa | 0 mm | - | 166 W/m² | - |
| 1777730702 | 10° C | 66% | 1014.4 hPa | 0 mm | - | 164 W/m² | - |
| 1777730397 | 9.44° C | 65% | 1014.5 hPa | 0 mm | - | 150 W/m² | - |
* Rain latest hour (hover to see other rain measurements)
** Current wind speed in m/s (hover to see current wind gust speed)